DECAYED

STARLINK-11331, 61537 (Decayed)

Orbit data source: Space-Track

STARLINK-11331, 61537 was a payload satellite owned by SpaceX/Seattle (US) in LEO that was launched on Tue, 15 Oct 2024 UTC via an FALCON 9 launch vehicle from the Air Force Western Test Range (AFWTR). Payload-class satellites include a variety of spacecraft equipped with specific instruments for various scientific and technological missions. These include communications satellites like Starlink; space stations such as the ISS; scientific satellites like the Hubble; Earth observation satellites from companies like Planet Labs, Umbra, and HawkEye 360; GPS; miniature CubeSats for education and research; and military/defense satellites.

Not visible in the next 10 days
Identifier
61537, 2024-184F
Orbit
Decayed
Country
Flag of USUS
Related business
Manufacturer
SpaceX/Seattle
Mission
Decayed Commercial Communications
Bus & Motor
STARLINK V2MD, Unknown motor
Mass
960 kg wet, ~910 kg dry
Launch date (UTC)
2024-10-15 (2 years ago)
Launch vehicle
FALCON 9
Launch site
Air Force Western Test Range (AFWTR)
Object type
Payload
Rocket body
Debris
Shape & HBR
Box + 2 Pan, 18.1 m
Radar Cross Section
36.964 m², Large (>1 m²)

Expand to show TLE details & history
Last TLE update: 3 months ago

TLE from 3 months ago
0 STARLINK-11331
1 61537U 24184F   26092.53260594  .05771683  13010+0  60692-2 0  9990
2 61537  53.1387 112.6584 0006285  74.6649 285.5083 16.16386795 84246
Epoch: 2026-04-02T12:46Z
TLE epoch observation values (Epoch: 2026-04-02T12:46:57.153Z)
Latitude
Longitude
90.04053°
Altitude
229.203 km
Speed
7.771 km/s
True Right ascension
07h 30m 38s
True Declination
0° 00' 00"
Sunlit
Object was in daylight at epoch
Visualization orbit readout
Latitude
Unknown
Longitude
Unknown
Altitude
Unknown
Speed
Unknown
Apparent Right ascension
Unknown
Apparent Declination
Unknown
Sunlit
N/A
Visualization observer readout
Local Sidereal Time
08:33:43
Azimuth
Unknown
Elevation
Unknown
Doppler factor
Unknown
Orbital elements
Apogee altitude
233.803 km
Perigee altitude
225.497 km
Semi-major axis
6,607.787 km
Eccentricity
0.00063
Inclination
53.1387°
RAAN
112.6584°
Arg. of periapsis
74.6649°
True anomaly
285.43889°
Mean anomaly
285.5083°
Eccentric anomaly
285.47359°
Mean motion
4.04072 °/min
Orbital period
89.09 mins
BSTAR
0.0060692
Loading maneuver chart data...
Computing Atmospheric mass density...
Loading historical data...
Loading historical data...
Loading historical data...
Loading historical data...
Loading historical data...
Loading historical data...
Loading historical data...

Documentation

Showing up to 5 results
|